P/2011 C2 ( Gibbs )

Japanese version
Home page
Updated on May 7, 2015

---------------------------------------------------------------------

* Profile

Discovery Date February 12, 2011
Magnitude 19.9 mag
Discoverer A. R. Gibbs (Mount Lemmon)

* Pictures

* Orbital Elements

Epoch 2011 Dec. 25.0 TT = JDT 2455920.5
T 2012 Jan. 7.71137 TT                                  MPC
q   5.3885779            (2000.0)            P               Q
n   0.04927873     Peri.  160.54497     -0.99072878     -0.12982969
a   7.3682280      Node    12.20341     +0.08533605     -0.82386976
e   0.2686738      Incl.   10.91039     +0.10570829     -0.55170904
P  20.0
From 180 observations 2011 Jan. 30-2013 June 9, mean residual 0".5.

* Magnitudes Graph

        m1 = 9.0 + 5 log d + 10.0 log r

---------------------------------------------------------------------

The orbital elements are published on M.P.E.C. 2013-M31.
The magnitudes graphs are made with Comet for Windows.

---------------------------------------------------------------------

Copyright(C) Seiichi Yoshida (comet@aerith.net). All rights reserved.